Location: *
(34.0486°S, 61.7880°E)
Time: 13:53:16
(UTC+00:00)

ATLAS CENTAUR R/B - Pass Details

Date: 01 April 2020
Orbit: 471 x 675 km, 64.7° (Epoch: 01 June)

Event Time Altitude Azimuth Distance (km) Brightness Sun altitude
Exits shadow 23:46:52 12° 169° (SSE) 1,662 4.0 -29.4°
Drops below altitude 10° 23:47:17 10° 166° (SSE) 1,821 4.3 -29.3°
Sets 23:49:42 0° 158° (SSE) 2,759 5.4 -28.9°
